| time (UTC) | temp F | wind direction | speed knots | gust knots | rain 1hr in | rain 24hr in | rain mn in | humidity % | barometer mb |
| 20260505093024 | 50 | 260 | 1.7 | 4.3 | 0.00 | 0.00 | 0.00 | 95 | 1015.9 |
| 20260505092521 | 50 | 276 | 3.5 | 4.3 | 0.00 | 0.00 | 0.00 | 95 | 1015.9 |
| 20260505092020 | 50 | 249 | 0.0 | 1.7 | 0.00 | 0.00 | 0.00 | 95 | 1016.0 |
| 20260505091516 | 51 | 257 | 1.7 | 6.1 | 0.00 | 0.00 | 0.00 | 95 | 1016.0 |
| 20260505091014 | 51 | 253 | 4.3 | 5.2 | 0.00 | 0.00 | 0.00 | 95 | 1015.7 |
| 20260505090512 | 51 | 234 | 2.6 | 5.2 | 0.00 | 0.00 | 0.00 | 95 | 1015.7 |
| 20260505090010 | 51 | 291 | 4.3 | 7.0 | 0.00 | 0.00 | 0.00 | 95 | 1015.8 |
| 20260505085508 | 51 | 315 | 2.6 | 7.0 | 0.00 | 0.00 | 0.00 | 95 | 1015.7 |
| 20260505085006 | 51 | 273 | 4.3 | 9.6 | 0.00 | 0.00 | 0.00 | 95 | 1015.8 |
| 20260505084504 | 51 | 282 | 4.3 | 8.7 | 0.00 | 0.00 | 0.00 | 95 | 1015.5 |
| 20260505084001 | 51 | 305 | 5.2 | 7.0 | 0.00 | 0.00 | 0.00 | 95 | 1015.8 |
| 20260505083458 | 50 | 296 | 4.3 | 6.1 | 0.00 | 0.00 | 0.00 | 95 | 1015.7 |
| 20260505082954 | 51 | 286 | 2.6 | 5.2 | 0.00 | 0.00 | 0.00 | 95 | 1015.7 |
| 20260505082450 | 51 | 260 | 3.5 | 5.2 | 0.00 | 0.00 | 0.00 | 95 | 1015.6 |
| 20260505081947 | 51 | 260 | 3.5 | 5.2 | 0.00 | 0.00 | 0.00 | 95 | 1015.6 |
| 20260505081444 | 51 | 308 | 5.2 | 7.0 | 0.00 | 0.00 | 0.00 | 95 | 1015.6 |
| 20260505080940 | 51 | 287 | 4.3 | 7.8 | 0.00 | 0.00 | 0.00 | 95 | 1015.5 |
| 20260505080437 | 51 | 273 | 3.5 | 8.7 | 0.00 | 0.00 | 0.00 | 95 | 1015.6 |
| 20260505075932 | 51 | 274 | 3.5 | 6.1 | 0.00 | 0.00 | 0.00 | 95 | 1015.5 |
| 20260505075429 | 51 | 261 | 2.6 | 7.8 | 0.00 | 0.00 | 0.00 | 95 | 1015.6 |
| 20260505074927 | 51 | 277 | 4.3 | 7.8 | 0.00 | 0.00 | 0.00 | 95 | 1015.2 |
| 20260505074424 | 51 | 287 | 5.2 | 9.6 | 0.00 | 0.00 | 0.00 | 95 | 1015.4 |
| 20260505073921 | 51 | 243 | 2.6 | 7.0 | 0.00 | 0.00 | 0.00 | 95 | 1015.2 |
| 20260505073419 | 51 | 269 | 3.5 | 6.1 | 0.00 | 0.00 | 0.00 | 95 | 1015.2 |
| 20260505072916 | 51 | 283 | 4.3 | 6.1 | 0.00 | 0.00 | 0.00 | 95 | 1015.3 |
| 20260505072411 | 51 | 293 | 3.5 | 7.0 | 0.00 | 0.00 | 0.00 | 95 | 1015.1 |
| 20260505071908 | 51 | 264 | 4.3 | 8.7 | 0.00 | 0.00 | 0.00 | 95 | 1015.1 |
| 20260505071404 | 51 | 295 | 7.0 | 9.6 | 0.00 | 0.00 | 0.00 | 95 | 1015.2 |
| 20260505070902 | 51 | 294 | 4.3 | 11.3 | 0.00 | 0.00 | 0.00 | 95 | 1015.1 |
| 20260505070358 | 51 | 280 | 3.5 | 7.0 | 0.00 | 0.00 | 0.00 | 95 | 1015.0 |
| 20260505065854 | 51 | 293 | 5.2 | 12.2 | 0.00 | 0.00 | 0.00 | 95 | 1014.8 |
| 20260505065351 | 51 | 209 | 6.1 | 9.6 | 0.00 | 0.00 | 0.00 | 95 | 1014.9 |
| 20260505064848 | 51 | 282 | 4.3 | 8.7 | 0.00 | 0.00 | 0.00 | 95 | 1014.8 |
| 20260505064345 | 51 | 310 | 6.1 | 14.8 | 0.00 | 0.00 | 0.00 | 95 | 1014.8 |
| 20260505063843 | 51 | 288 | 5.2 | 17.4 | 0.00 | 0.00 | 0.00 | 94 | 1014.6 |
| 20260505063339 | 51 | 286 | 7.8 | 17.4 | 0.00 | 0.00 | 0.00 | 95 | 1014.7 |
| 20260505062836 | 51 | 281 | 12.2 | 19.1 | 0.00 | 0.00 | 0.00 | 94 | 1014.6 |
| 20260505062333 | 51 | 299 | 6.1 | 9.6 | 0.00 | 0.00 | 0.00 | 94 | 1014.7 |
| 20260505061830 | 51 | 264 | 4.3 | 7.0 | 0.00 | 0.00 | 0.00 | 94 | 1014.7 |
| 20260505061328 | 51 | 283 | 6.1 | 9.6 | 0.00 | 0.00 | 0.00 | 94 | 1014.5 |
| 20260505060825 | 51 | 263 | 2.6 | 17.4 | 0.00 | 0.00 | 0.00 | 94 | 1014.5 |
| 20260505060322 | 51 | 251 | 7.0 | 11.3 | 0.00 | 0.00 | 0.00 | 94 | 1014.4 |
| 20260505055818 | 51 | 315 | 6.1 | 9.6 | 0.00 | 0.00 | 0.00 | 94 | 1014.3 |
| 20260505055314 | 51 | 304 | 6.1 | 12.2 | 0.00 | 0.00 | 0.00 | 94 | 1014.2 |
| 20260505054812 | 51 | 280 | 4.3 | 13.0 | 0.00 | 0.00 | 0.00 | 94 | 1014.2 |
| 20260505054308 | 51 | 284 | 6.1 | 14.8 | 0.00 | 0.00 | 0.00 | 95 | 1014.0 |
| 20260505053807 | 51 | 198 | 7.0 | 13.0 | 0.00 | 0.00 | 0.00 | 95 | 1014.0 |
| 20260505053303 | 51 | 234 | 4.3 | 7.8 | 0.00 | 0.00 | 0.00 | 95 | 1014.0 |
| 20260505052800 | 51 | 246 | 4.3 | 13.9 | 0.00 | 0.00 | 0.00 | 95 | 1014.1 |
| 20260505052257 | 51 | 272 | 10.4 | 13.0 | 0.00 | 0.00 | 0.00 | 94 | 1013.9 |
| 20260505051754 | 51 | 275 | 3.5 | 7.8 | 0.00 | 0.00 | 0.00 | 94 | 1014.0 |
| 20260505051252 | 51 | 272 | 4.3 | 11.3 | 0.00 | 0.00 | 0.00 | 94 | 1013.9 |
| 20260505050750 | 51 | 226 | 5.2 | 13.0 | 0.00 | 0.00 | 0.00 | 94 | 1013.7 |
| 20260505050248 | 51 | 229 | 7.0 | 15.6 | 0.00 | 0.00 | 0.00 | 93 | 1013.6 |
| 20260505041718 | 52 | 288 | 7.8 | 13.9 | 0.00 | 0.00 | 0.00 | 90 | 1013.5 |
| 20260505041215 | 52 | 202 | 6.1 | 13.0 | 0.00 | 0.00 | 0.00 | 90 | 1013.3 |
| 20260505040712 | 52 | 321 | 7.8 | 13.9 | 0.00 | 0.00 | 0.00 | 89 | 1013.2 |
| 20260505040209 | 53 | 271 | 9.6 | 13.9 | 0.00 | 0.00 | 0.00 | 89 | 1013.5 |
| 20260505035706 | 53 | 250 | 10.4 | 13.9 | 0.00 | 0.00 | 0.00 | 88 | 1013.3 |
| 20260505035202 | 53 | 296 | 8.7 | 14.8 | 0.00 | 0.00 | 0.00 | 88 | 1013.0 |
| 20260505034659 | 53 | 300 | 7.0 | 13.0 | 0.00 | 0.00 | 0.00 | 88 | 1013.1 |
| 20260505034156 | 53 | 260 | 8.7 | 13.0 | 0.00 | 0.00 | 0.00 | 87 | 1013.0 |
| 20260505033652 | 53 | 269 | 6.1 | 9.6 | 0.00 | 0.00 | 0.00 | 87 | 1013.1 |
| 20260505033151 | 54 | 322 | 7.0 | 13.0 | 0.00 | 0.00 | 0.00 | 86 | 1012.9 |
| 20260505032648 | 54 | 290 | 5.2 | 12.2 | 0.00 | 0.00 | 0.00 | 84 | 1013.1 |
| 20260505032144 | 55 | 262 | 7.8 | 13.9 | 0.00 | 0.00 | 0.00 | 83 | 1012.9 |
| 20260505031642 | 55 | 261 | 7.8 | 12.2 | 0.00 | 0.00 | 0.00 | 82 | 1013.0 |
| 20260505031138 | 55 | 291 | 6.1 | 13.9 | 0.00 | 0.00 | 0.00 | 82 | 1013.0 |
| 20260505030635 | 55 | 304 | 7.0 | 12.2 | 0.00 | 0.00 | 0.00 | 82 | 1013.0 |
| 20260505030130 | 55 | 294 | 6.1 | 7.8 | 0.00 | 0.00 | 0.00 | 82 | 1013.1 |
| 20260505025627 | 55 | 271 | 7.8 | 13.0 | 0.00 | 0.00 | 0.00 | 81 | 1013.1 |
| 20260505025126 | 55 | 317 | 6.1 | 17.4 | 0.00 | 0.00 | 0.00 | 81 | 1012.9 |
| 20260505024622 | 55 | 262 | 6.1 | 12.2 | 0.00 | 0.00 | 0.00 | 80 | 1012.9 |
| 20260505024120 | 56 | 285 | 6.1 | 13.0 | 0.00 | 0.00 | 0.00 | 79 | 1012.8 |
| 20260505023617 | 57 | 297 | 5.2 | 13.0 | 0.00 | 0.00 | 0.00 | 78 | 1013.0 |
| 20260505023114 | 56 | 304 | 7.8 | 11.3 | 0.00 | 0.00 | 0.00 | 78 | 1012.9 |
| 20260505022612 | 56 | 270 | 4.3 | 13.9 | 0.00 | 0.00 | 0.00 | 78 | 1013.0 |
| 20260505022108 | 57 | 281 | 7.0 | 13.0 | 0.00 | 0.00 | 0.00 | 78 | 1012.9 |
| 20260505021605 | 57 | 239 | 7.0 | 13.0 | 0.00 | 0.00 | 0.00 | 76 | 1012.9 |
| 20260505021102 | 58 | 278 | 6.1 | 12.2 | 0.00 | 0.00 | 0.00 | 75 | 1013.0 |
| 20260505020602 | 58 | 282 | 6.1 | 13.0 | 0.00 | 0.00 | 0.00 | 74 | 1012.8 |
| 20260505020059 | 59 | 237 | 6.1 | 13.9 | 0.00 | 0.00 | 0.00 | 73 | 1013.1 |
| 20260505015556 | 58 | 283 | 9.6 | 12.2 | 0.00 | 0.00 | 0.00 | 73 | 1013.1 |
| 20260505015053 | 58 | 303 | 6.1 | 8.7 | 0.00 | 0.00 | 0.00 | 75 | 1013.0 |
| 20260505014549 | 58 | 294 | 6.1 | 11.3 | 0.00 | 0.00 | 0.00 | 73 | 1013.2 |
| 20260505014047 | 57 | 273 | 5.2 | 12.2 | 0.00 | 0.00 | 0.00 | 75 | 1013.2 |
| 20260505013544 | 57 | 234 | 7.8 | 11.3 | 0.00 | 0.00 | 0.00 | 76 | 1013.2 |
| 20260505013041 | 58 | 292 | 7.8 | 15.6 | 0.00 | 0.00 | 0.00 | 76 | 1013.2 |
| 20260505012539 | 58 | 286 | 6.1 | 13.0 | 0.00 | 0.00 | 0.00 | 75 | 1013.2 |
| 20260505012036 | 59 | 264 | 5.2 | 9.6 | 0.00 | 0.00 | 0.00 | 74 | 1013.4 |
| 20260505011531 | 59 | 260 | 4.3 | 9.6 | 0.00 | 0.00 | 0.00 | 73 | 1013.4 |
| 20260505011029 | 59 | 275 | 6.1 | 8.7 | 0.00 | 0.00 | 0.00 | 72 | 1013.3 |
| 20260505010524 | 60 | 298 | 10.4 | 14.8 | 0.00 | 0.00 | 0.00 | 70 | 1013.5 |
| 20260505010021 | 60 | 253 | 6.1 | 11.3 | 0.00 | 0.00 | 0.00 | 70 | 1013.6 |
| 20260505005517 | 60 | 235 | 8.7 | 12.2 | 0.00 | 0.00 | 0.00 | 70 | 1013.3 |
| 20260505005015 | 60 | 251 | 7.0 | 19.1 | 0.00 | 0.00 | 0.00 | 69 | 1013.4 |
| 20260505004512 | 59 | 277 | 7.0 | 9.6 | 0.00 | 0.00 | 0.00 | 72 | 1013.5 |
| 20260505004008 | 60 | 239 | 9.6 | 12.2 | 0.00 | 0.00 | 0.00 | 71 | 1013.5 |
| 20260505003505 | 60 | 250 | 8.7 | 13.0 | 0.00 | 0.00 | 0.00 | 70 | 1013.3 |
| 20260505003002 | 62 | 282 | 4.3 | 7.0 | 0.00 | 0.00 | 0.00 | 67 | 1013.2 |
| 20260505002458 | 62 | 278 | 5.2 | 11.3 | 0.00 | 0.00 | 0.00 | 67 | 1013.4 |
| 20260505001956 | 62 | 339 | 8.7 | 13.0 | 0.00 | 0.00 | 0.00 | 66 | 1013.4 |
| 20260505001454 | 61 | 278 | 6.1 | 9.6 | 0.00 | 0.00 | 0.00 | 69 | 1013.3 |
| 20260505000950 | 60 | 242 | 5.2 | 7.8 | 0.00 | 0.00 | 0.00 | 70 | 1013.4 |
| 20260505000448 | 60 | 271 | 4.3 | 8.7 | 0.00 | 0.00 | 0.00 | 71 | 1013.5 |
| 20260504235945 | 60 | 299 | 7.0 | 9.6 | 0.00 | 0.00 | 0.00 | 72 | 1013.4 |
| 20260504235442 | 60 | 288 | 6.1 | 9.6 | 0.00 | 0.00 | 0.00 | 73 | 1013.6 |
| 20260504234939 | 61 | 255 | 3.5 | 7.8 | 0.00 | 0.00 | 0.00 | 72 | 1013.6 |
| 20260504234436 | 60 | 252 | 7.8 | 13.0 | 0.00 | 0.00 | 0.00 | 72 | 1013.6 |
| 20260504233932 | 61 | 301 | 7.0 | 12.2 | 0.00 | 0.00 | 0.00 | 71 | 1013.3 |
| 20260504233428 | 62 | 206 | 2.6 | 11.3 | 0.00 | 0.00 | 0.00 | 70 | 1013.5 |
| 20260504232925 | 63 | 264 | 6.1 | 8.7 | 0.00 | 0.00 | 0.00 | 68 | 1013.5 |
| 20260504232422 | 62 | 299 | 3.5 | 9.6 | 0.00 | 0.00 | 0.00 | 70 | 1013.5 |
| 20260504231919 | 62 | 254 | 8.7 | 11.3 | 0.00 | 0.00 | 0.00 | 70 | 1013.5 |
| 20260504231415 | 60 | 280 | 6.1 | 11.3 | 0.00 | 0.00 | 0.00 | 72 | 1013.5 |
| 20260504230912 | 61 | 287 | 6.1 | 8.7 | 0.00 | 0.00 | 0.00 | 73 | 1013.8 |
| 20260504230409 | 61 | 308 | 3.5 | 7.8 | 0.00 | 0.00 | 0.00 | 73 | 1013.6 |
| 20260504225908 | 62 | 275 | 6.1 | 8.7 | 0.00 | 0.00 | 0.00 | 71 | 1013.7 |
| 20260504225404 | 61 | 302 | 5.2 | 9.6 | 0.00 | 0.00 | 0.00 | 73 | 1013.8 |
| 20260504224902 | 62 | 275 | 6.1 | 8.7 | 0.00 | 0.00 | 0.00 | 71 | 1013.9 |
| 20260504224358 | 62 | 291 | 5.2 | 7.8 | 0.00 | 0.00 | 0.00 | 71 | 1014.1 |
| 20260504223855 | 62 | 261 | 4.3 | 7.0 | 0.00 | 0.00 | 0.00 | 72 | 1013.9 |
| 20260504223351 | 61 | 308 | 4.3 | 11.3 | 0.00 | 0.00 | 0.00 | 73 | 1014.1 |
| 20260504222847 | 63 | 285 | 5.2 | 8.7 | 0.00 | 0.00 | 0.00 | 70 | 1013.9 |
| 20260504222344 | 62 | 298 | 5.2 | 12.2 | 0.00 | 0.00 | 0.00 | 69 | 1014.1 |
| 20260504221843 | 62 | 210 | 3.5 | 7.0 | 0.00 | 0.00 | 0.00 | 70 | 1014.1 |
| 20260504221339 | 63 | 289 | 2.6 | 9.6 | 0.00 | 0.00 | 0.00 | 70 | 1013.9 |
| 20260504220836 | 62 | 220 | 4.3 | 9.6 | 0.00 | 0.00 | 0.00 | 71 | 1014.0 |
| 20260504220333 | 62 | 254 | 3.5 | 5.2 | 0.00 | 0.00 | 0.00 | 71 | 1014.0 |
| 20260504215830 | 62 | 272 | 4.3 | 6.1 | 0.00 | 0.00 | 0.00 | 71 | 1014.0 |
| 20260504215326 | 62 | 221 | 2.6 | 8.7 | 0.00 | 0.00 | 0.00 | 71 | 1014.2 |
| 20260504214822 | 62 | 270 | 5.2 | 7.0 | 0.00 | 0.00 | 0.00 | 72 | 1014.2 |
| 20260504214320 | 62 | 274 | 3.5 | 7.8 | 0.00 | 0.00 | 0.00 | 70 | 1014.3 |
| 20260504213816 | 62 | 317 | 5.2 | 8.7 | 0.00 | 0.00 | 0.00 | 69 | 1014.3 |
| 20260504213312 | 61 | 262 | 5.2 | 7.0 | 0.00 | 0.00 | 0.00 | 71 | 1014.4 |
| 20260504212810 | 62 | 303 | 3.5 | 7.0 | 0.00 | 0.00 | 0.00 | 70 | 1014.5 |
| 20260504212306 | 63 | 286 | 5.2 | 7.8 | 0.00 | 0.00 | 0.00 | 68 | 1014.4 |
| 20260504211804 | 62 | 233 | 1.7 | 7.8 | 0.00 | 0.00 | 0.00 | 69 | 1014.4 |
| 20260504211259 | 64 | 274 | 2.6 | 5.2 | 0.00 | 0.00 | 0.00 | 65 | 1014.4 |
| 20260504210757 | 64 | 257 | 2.6 | 5.2 | 0.00 | 0.00 | 0.00 | 65 | 1014.4 |
| 20260504210254 | 64 | 279 | 4.3 | 5.2 | 0.00 | 0.00 | 0.00 | 65 | 1014.4 |
| 20260504205751 | 64 | 270 | 2.6 | 4.3 | 0.00 | 0.00 | 0.00 | 65 | 1014.4 |
| 20260504205249 | 62 | 288 | 4.3 | 6.1 | 0.00 | 0.00 | 0.00 | 65 | 1014.3 |
| 20260504204747 | 63 | 344 | 5.2 | 7.0 | 0.00 | 0.00 | 0.00 | 66 | 1014.5 |
| 20260504204245 | 63 | 288 | 2.6 | 6.1 | 0.00 | 0.00 | 0.00 | 66 | 1014.3 |
| 20260504203744 | 64 | 267 | 1.7 | 4.3 | 0.00 | 0.00 | 0.00 | 65 | 1014.3 |
| 20260504203241 | 63 | 233 | 3.5 | 5.2 | 0.00 | 0.00 | 0.00 | 64 | 1014.4 |
| 20260504202741 | 63 | 261 | 0.9 | 5.2 | 0.00 | 0.00 | 0.00 | 65 | 1014.5 |
| 20260504202238 | 64 | 263 | 2.6 | 2.6 | 0.00 | 0.00 | 0.00 | 62 | 1014.3 |
| 20260504201735 | 63 | 261 | 2.6 | 5.2 | 0.00 | 0.00 | 0.00 | 63 | 1014.4 |
| 20260504201232 | 64 | 258 | 1.7 | 5.2 | 0.00 | 0.00 | 0.00 | 64 | 1014.3 |
| 20260504200730 | 63 | 293 | 2.6 | 6.1 | 0.00 | 0.00 | 0.00 | 65 | 1014.3 |
| 20260504200226 | 64 | 245 | 2.6 | 5.2 | 0.00 | 0.00 | 0.00 | 65 | 1014.4 |
| 20260504195722 | 63 | 243 | 1.7 | 5.2 | 0.00 | 0.00 | 0.00 | 64 | 1014.5 |
| 20260504195219 | 63 | 306 | 3.5 | 7.0 | 0.00 | 0.00 | 0.00 | 60 | 1014.5 |
| 20260504194716 | 64 | 269 | 1.7 | 4.3 | 0.00 | 0.00 | 0.00 | 59 | 1014.3 |
| 20260504194212 | 65 | 335 | 4.3 | 6.1 | 0.00 | 0.00 | 0.00 | 60 | 1014.5 |
| 20260504193708 | 64 | 312 | 3.5 | 5.2 | 0.00 | 0.00 | 0.00 | 61 | 1014.5 |
| 20260504193206 | 64 | 250 | 2.6 | 6.1 | 0.00 | 0.00 | 0.00 | 61 | 1014.4 |
| 20260504192704 | 64 | 310 | 4.3 | 5.2 | 0.00 | 0.00 | 0.00 | 58 | 1014.3 |
| 20260504192202 | 64 | 296 | 3.5 | 6.1 | 0.00 | 0.00 | 0.00 | 62 | 1014.5 |
| 20260504191700 | 68 | 305 | 5.2 | 8.7 | 0.00 | 0.00 | 0.00 | 58 | 1014.4 |
| 20260504191156 | 68 | 346 | 5.2 | 7.0 | 0.00 | 0.00 | 0.00 | 57 | 1014.2 |
| 20260504190651 | 69 | 354 | 7.0 | 8.7 | 0.00 | 0.00 | 0.00 | 54 | 1014.2 |
| 20260504190149 | 71 | 16 | 6.1 | 7.0 | 0.00 | 0.00 | 0.00 | 52 | 1014.2 |
| 20260504185645 | 71 | 326 | 5.2 | 6.1 | 0.00 | 0.00 | 0.00 | 52 | 1014.2 |
| 20260504185142 | 71 | 349 | 3.5 | 6.1 | 0.00 | 0.00 | 0.00 | 55 | 1014.2 |
| 20260504184638 | 69 | 20 | 5.2 | 6.1 | 0.00 | 0.00 | 0.00 | 54 | 1014.0 |
| 20260504184133 | 69 | 14 | 3.5 | 5.2 | 0.00 | 0.00 | 0.00 | 54 | 1014.1 |
| 20260504183630 | 69 | 10 | 4.3 | 5.2 | 0.00 | 0.00 | 0.00 | 57 | 1014.1 |
| 20260504183128 | 69 | 354 | 5.2 | 7.0 | 0.00 | 0.00 | 0.00 | 57 | 1014.4 |
| 20260504182626 | 68 | 17 | 4.3 | 7.0 | 0.00 | 0.00 | 0.00 | 56 | 1014.4 |
| 20260504182123 | 68 | 0 | 4.3 | 6.1 | 0.00 | 0.00 | 0.00 | 55 | 1014.1 |
| 20260504181620 | 67 | 359 | 4.3 | 7.0 | 0.00 | 0.00 | 0.00 | 56 | 1014.5 |
| 20260504181117 | 68 | 350 | 5.2 | 6.1 | 0.00 | 0.00 | 0.00 | 55 | 1014.5 |
| 20260504180617 | 68 | 19 | 5.2 | 6.1 | 0.00 | 0.00 | 0.00 | 55 | 1014.5 |
| 20260504180115 | 67 | 352 | 6.1 | 7.0 | 0.00 | 0.00 | 0.00 | 56 | 1014.3 |
| 20260504175612 | 68 | 28 | 6.1 | 7.0 | 0.00 | 0.00 | 0.00 | 55 | 1014.6 |
| 20260504175108 | 68 | 331 | 2.6 | 4.3 | 0.00 | 0.00 | 0.00 | 56 | 1014.4 |
| 20260504174607 | 68 | 299 | 3.5 | 6.1 | 0.00 | 0.00 | 0.00 | 57 | 1014.2 |
| 20260504174103 | 67 | 15 | 4.3 | 6.1 | 0.00 | 0.00 | 0.00 | 56 | 1014.5 |
| 20260504173600 | 67 | 359 | 4.3 | 7.0 | 0.00 | 0.00 | 0.00 | 57 | 1014.4 |
| 20260504173058 | 66 | 7 | 4.3 | 6.1 | 0.00 | 0.00 | 0.00 | 58 | 1014.5 |
| 20260504172553 | 66 | 339 | 6.1 | 7.8 | 0.00 | 0.00 | 0.00 | 57 | 1014.4 |
| 20260504172050 | 66 | 349 | 4.3 | 7.8 | 0.00 | 0.00 | 0.00 | 57 | 1014.4 |
| 20260504171547 | 67 | 22 | 7.0 | 7.0 | 0.00 | 0.00 | 0.00 | 57 | 1014.5 |
| 20260504171044 | 67 | 1 | 3.5 | 6.1 | 0.00 | 0.00 | 0.00 | 57 | 1014.5 |
| 20260504170539 | 66 | 354 | 4.3 | 5.2 | 0.00 | 0.00 | 0.00 | 56 | 1014.6 |
| 20260504150924 | 69 | 326 | 1.7 | 2.6 | 0.00 | 0.00 | 0.00 | 47 | 1013.9 |
| 20260504150420 | 69 | 193 | 0.0 | 1.7 | 0.00 | 0.00 | 0.00 | 46 | 1013.9 |
| 20260504140847 | 63 | 248 | 1.7 | 4.3 | 0.00 | 0.00 | 0.00 | 51 | 1013.5 |
| 20260504140343 | 62 | 240 | 2.6 | 2.6 | 0.00 | 0.00 | 0.00 | 52 | 1013.5 |
| 20260504130812 | 59 | 224 | 4.3 | 5.2 | 0.00 | 0.00 | 0.00 | 55 | 1013.1 |
| 20260504130308 | 59 | 217 | 4.3 | 6.1 | 0.00 | 0.00 | 0.00 | 55 | 1013.2 |
| 20260504120231 | 57 | 218 | 2.6 | 4.3 | 0.00 | 0.00 | 0.00 | 68 | 1013.0 |
| 20260504110659 | 57 | 196 | 1.7 | 1.7 | 0.00 | 0.00 | 0.00 | 69 | 1012.9 |
| 20260504110155 | 56 | 195 | 1.7 | 1.7 | 0.00 | 0.00 | 0.00 | 69 | 1013.0 |
| 20260504100119 | 58 | 192 | 0.9 | 1.7 | 0.00 | 0.00 | 0.00 | 59 | 1012.8 |